EI4HQ Weather Reports


Display with metric or nautical units.
time (UTC)temp
F
wind
direction
speed
MPH
gust
MPH
rain 1hr
in
rain 24hr
in
rain mn
in
humidity
%
barometer
mb
20260506110003 53 163 7.0 10.0 0.00 0.00 0.00 73 1015.0
20260506105403 53 166 6.0 10.0 0.00 0.00 0.00 74 1015.0
20260506104503 53 155 6.0 9.0 0.00 0.00 0.00 75 1015.0
20260506103603 53 147 4.0 6.0 0.00 0.00 0.00 76 1015.0
20260506102703 53 141 4.0 5.0 0.00 0.00 0.00 77 1015.0
20260506101803 53 142 3.0 5.0 0.00 0.00 0.00 76 1015.0
20260506100903 53 146 4.0 7.0 0.00 0.00 0.00 76 1015.0
20260506100003 53 147 4.0 7.0 0.00 0.00 0.00 75 1015.1
20260506095403 53 157 3.0 6.0 0.00 0.00 0.00 75 1015.1
20260506094503 53 144 2.0 5.0 0.00 0.00 0.00 75 1015.2
20260506093603 53 142 2.0 4.0 0.00 0.00 0.00 75 1015.2
20260506092703 54 145 2.0 4.0 0.00 0.00 0.00 76 1015.1
20260506091803 54 151 3.0 5.0 0.00 0.00 0.00 76 1015.1
20260506090903 54 146 3.0 5.0 0.00 0.00 0.00 77 1015.2
20260506090003 53 136 3.0 5.0 0.00 0.00 0.00 78 1015.2
20260506085403 53 141 3.0 5.0 0.00 0.00 0.00 79 1015.2
20260506084503 53 78 1.0 4.0 0.00 0.00 0.00 79 1015.3
20260506083603 52 353 1.0 3.0 0.00 0.00 0.00 80 1015.3
20260506082703 52 352 1.0 4.0 0.00 0.00 0.00 80 1015.4
20260506081803 52 339 2.0 5.0 0.00 0.00 0.00 81 1015.4
20260506080903 51 339 2.0 5.0 0.00 0.00 0.00 82 1015.3
20260506072703 50 336 3.0 6.0 0.00 0.00 0.00 83 1015.2
20260506071803 50 339 3.0 6.0 0.00 0.00 0.00 84 1015.2
20260506070903 49 331 2.0 5.0 0.00 0.00 0.00 84 1015.2
20260506061803 48 331 4.0 5.0 0.00 0.00 0.00 85 1015.0
20260506060903 48 338 3.0 5.0 0.00 0.00 0.00 85 1015.0
20260506050903 48 336 4.0 5.0 0.00 0.00 0.00 84 1014.9
20260506044503 48 347 4.0 6.0 0.00 0.00 0.00 83 1015.0
20260506043603 48 346 4.0 6.0 0.00 0.00 0.00 83 1015.0
20260506042718 48 346 3.0 5.0 0.00 0.00 0.00 83 1015.0
20260506041803 48 344 4.0 5.0 0.00 0.00 0.00 83 1015.0
20260506040903 48 335 4.0 5.0 0.00 0.00 0.00 83 1015.0
20260506040003 49 338 3.0 5.0 0.00 0.00 0.00 83 1015.1
20260506035403 49 344 3.0 4.0 0.00 0.00 0.00 83 1015.1
20260506034503 49 348 2.0 4.0 0.00 0.00 0.00 83 1015.2
20260506033603 49 348 2.0 4.0 0.00 0.00 0.00 83 1015.1
20260506032703 49 349 1.0 3.0 0.00 0.00 0.00 83 1015.2
20260506031803 49 350 2.0 4.0 0.00 0.00 0.00 83 1015.3
20260506030903 49 343 2.0 4.0 0.00 0.00 0.00 83 1015.3
20260506030003 49 343 3.0 4.0 0.00 0.00 0.00 83 1015.3
20260506025403 49 338 3.0 5.0 0.00 0.00 0.00 83 1015.4
20260506024503 49 320 3.0 4.0 0.00 0.00 0.00 83 1015.4
20260506023603 49 334 4.0 5.0 0.00 0.00 0.00 83 1015.4
20260506022703 49 339 4.0 6.0 0.00 0.00 0.00 83 1015.4
20260506021803 49 340 5.0 6.0 0.00 0.00 0.00 83 1015.5
20260506020903 49 335 4.0 6.0 0.00 0.00 0.00 83 1015.5
20260506020003 49 341 4.0 6.0 0.00 0.00 0.00 83 1015.5
20260506015403 49 339 4.0 6.0 0.00 0.00 0.00 83 1015.6
20260506014503 49 338 5.0 7.0 0.00 0.00 0.00 83 1015.7
20260506013603 49 338 6.0 7.0 0.00 0.00 0.00 83 1015.8
20260506012703 49 337 6.0 8.0 0.00 0.00 0.00 82 1015.9
20260506011803 49 339 5.0 8.0 0.00 0.00 0.00 82 1015.9
20260506010903 49 343 5.0 7.0 0.00 0.00 0.00 82 1015.9
20260506010003 49 338 5.0 8.0 0.00 0.00 0.00 82 1015.9
20260506005403 50 339 6.0 8.0 0.00 0.00 0.00 82 1015.9
20260506004503 50 338 6.0 9.0 0.00 0.00 0.00 82 1016.0
20260506003603 50 334 5.0 8.0 0.00 0.00 0.00 82 1016.1
20260506002703 50 335 5.0 8.0 0.00 0.00 0.00 81 1016.0
20260506001803 50 335 5.0 9.0 0.00 0.00 0.00 81 1016.0
20260506000903 50 337 5.0 8.0 0.00 0.00 0.00 81 1016.1
20260506000003 50 336 5.0 8.0 0.00 0.00 0.00 81 1016.1
20260505235403 50 336 6.0 9.0 0.00 0.00 0.00 81 1016.1
20260505234503 50 337 7.0 9.0 0.00 0.00 0.00 81 1016.1
20260505233603 50 336 6.0 9.0 0.00 0.00 0.00 81 1016.1
20260505232703 50 337 6.0 9.0 0.00 0.00 0.00 81 1016.2
20260505231803 50 335 5.0 7.0 0.00 0.00 0.00 81 1016.2
20260505230903 50 336 5.0 7.0 0.00 0.00 0.00 80 1016.3
20260505230003 50 335 4.0 6.0 0.00 0.00 0.00 80 1016.3
20260505225403 50 335 5.0 7.0 0.00 0.00 0.00 80 1016.3
20260505224503 50 337 4.0 6.0 0.00 0.00 0.00 79 1016.3
20260505223603 50 334 4.0 7.0 0.00 0.00 0.00 79 1016.4
20260505222703 51 336 5.0 7.0 0.00 0.00 0.00 79 1016.4
20260505221803 51 336 4.0 6.0 0.00 0.00 0.00 78 1016.5
20260505220903 51 335 3.0 6.0 0.00 0.00 0.00 78 1016.5
20260505220003 51 336 4.0 7.0 0.00 0.00 0.00 78 1016.5
20260505215403 51 336 5.0 7.0 0.00 0.00 0.00 78 1016.6
20260505214503 51 337 5.0 8.0 0.00 0.00 0.00 77 1016.6
20260505213603 51 335 5.0 8.0 0.00 0.00 0.00 77 1016.6
20260505212703 51 336 5.0 8.0 0.00 0.00 0.00 77 1016.7
20260505211803 52 334 5.0 8.0 0.00 0.00 0.00 76 1016.6
20260505210903 52 336 4.0 7.0 0.00 0.00 0.00 75 1016.6
20260505210003 52 338 4.0 8.0 0.00 0.00 0.00 74 1016.5
20260505205403 52 337 4.0 8.0 0.00 0.00 0.00 74 1016.5
20260505204503 53 335 4.0 7.0 0.00 0.00 0.00 73 1016.5
20260505203603 53 340 4.0 8.0 0.00 0.00 0.00 72 1016.4
20260505202703 53 350 4.0 7.0 0.00 0.00 0.00 72 1016.4
20260505201803 53 347 3.0 7.0 0.00 0.00 0.00 71 1016.5
20260505200903 53 342 4.0 8.0 0.00 0.00 0.00 71 1016.4
20260505200003 53 343 4.0 9.0 0.00 0.00 0.00 70 1016.5
20260505195403 53 346 4.0 8.0 0.00 0.00 0.00 70 1016.5
20260505194503 53 344 5.0 8.0 0.00 0.00 0.00 69 1016.4
20260505193603 54 347 5.0 10.0 0.00 0.00 0.00 69 1016.3
20260505192703 54 348 5.0 10.0 0.00 0.00 0.00 68 1016.3
20260505191803 54 350 6.0 11.0 0.00 0.00 0.00 67 1016.2
20260505190903 54 347 6.0 10.0 0.00 0.00 0.00 67 1016.1
20260505190003 54 344 5.0 11.0 0.00 0.00 0.00 66 1016.1
20260505185403 54 348 4.0 8.0 0.00 0.00 0.00 66 1016.0
20260505184503 54 344 5.0 9.0 0.00 0.00 0.00 66 1016.1
20260505183603 55 346 5.0 9.0 0.00 0.00 0.00 66 1016.3
20260505182703 55 344 5.0 9.0 0.00 0.00 0.00 66 1016.1
20260505181803 55 346 5.0 10.0 0.00 0.00 0.00 65 1016.1
20260505180903 55 339 5.0 10.0 0.00 0.00 0.00 64 1016.1
20260505180003 56 345 5.0 8.0 0.00 0.00 0.00 63 1016.1
20260505175403 56 341 6.0 8.0 0.00 0.00 0.00 63 1016.1
20260505174503 56 343 5.0 8.0 0.00 0.00 0.00 62 1016.2
20260505173603 56 339 3.0 8.0 0.00 0.00 0.00 63 1016.3
20260505172703 56 342 4.0 7.0 0.00 0.00 0.00 63 1016.3
20260505171803 56 348 4.0 9.0 0.00 0.00 0.00 63 1016.3
20260505170903 56 343 4.0 10.0 0.00 0.00 0.00 64 1016.4
20260505170003 55 342 4.0 9.0 0.00 0.00 0.00 65 1016.4
20260505165403 55 340 6.0 12.0 0.00 0.00 0.00 63 1016.4
20260505164503 55 346 5.0 9.0 0.00 0.00 0.00 62 1016.4
20260505163603 56 343 6.0 10.0 0.00 0.00 0.00 62 1016.4
20260505162703 56 343 5.0 11.0 0.00 0.00 0.00 61 1016.5
20260505161803 56 340 2.0 10.0 0.00 0.00 0.00 61 1016.4
20260505160903 56 336 5.0 10.0 0.00 0.00 0.00 59 1016.5
20260505152703 57 336 3.0 9.0 0.00 0.00 0.00 59 1016.6
20260505151803 56 332 4.0 9.0 0.00 0.00 0.00 59 1016.7
20260505150903 56 344 5.0 9.0 0.00 0.00 0.00 58 1016.7
20260505124503 56 345 5.0 10.0 0.00 0.00 0.00 63 1017.0
20260505123603 56 341 7.0 13.0 0.00 0.00 0.00 61 1017.0
20260505122703 57 356 4.0 9.0 0.00 0.00 0.00 61 1017.0
20260505121803 57 348 3.0 9.0 0.00 0.00 0.00 61 1017.0
20260505120903 57 351 3.0 7.0 0.00 0.00 0.00 60 1017.0
20260505120003 56 352 4.0 9.0 0.00 0.00 0.00 61 1017.1
20260505115403 56 348 5.0 10.0 0.00 0.00 0.00 60 1017.1
20260505114503 56 343 5.0 10.0 0.00 0.00 0.00 62 1017.0
20260505113603 56 342 7.0 13.0 0.00 0.00 0.00 63 1017.0
20260505112703 57 342 8.0 13.0 0.00 0.00 0.00 62 1017.0
20260505111803 57 337 6.0 9.0 0.00 0.00 0.00 62 1017.0
20260505110903 56 335 6.0 11.0 0.00 0.00 0.00 64 1017.1